Regional Weather Roundup
Issued by NWS

Home | Current Version | Previous Version | Text Only | Print | Product List | Glossary On
Versions: 1 2 3 4 5 6 7 8 9 10 11 12 13 14 15 16 17 18 19 20 21 22 23 24 25 26 27 28 29 30 31 32 33 34 35 36 37 38 39 40 41 42 43 44 45 46 47 48 49 50
000
ASUS44 KFWD 281015
RWRTX
NORTH TEXAS HOURLY WEATHER ROUNDUP
NATIONAL WEATHER SERVICE FORT WORTH TX
500 AM CDT THU MAY 28 2015

NOTE: "FAIR" INDICATES FEW OR NO CLOUDS BELOW 12,000 FEET WITH NO
SIGNIFICANT WEATHER AND/OR OBSTRUCTIONS TO VISIBILITY.

TXZ118-119-281100-
DALLAS/FORT WORTH METROPLEX

CITY           SKY/WX    TMP DP  RH WIND       PRES   REMARKS
DFW AIRPORT    CLOUDY    72  70  93 S7        30.03S
DALLAS LOVE    CLOUDY    75  71  87 S10       30.04S
FTW MEACHAM    CLOUDY    75  72  90 S7        30.03S
DAL-EXECUTIVE  CLOUDY    74  70  87 S9        30.04S
FTW-ALLIANCE   CLOUDY    73  72  96 S7        30.03S
FTW-NAS-JRB    CLOUDY    75  72  90 S10       30.03S
FTW-SPINKS     CLOUDY    74  71  88 S10       30.06S
ARLINGTON      CLOUDY    75  70  84 S9        30.03F
GRAND PRAIRIE  CLOUDY    74  74 100 S7        30.05F
ADDISON        CLOUDY    75  73  92 S6        30.06S
MESQUITE       CLOUDY    72  71  96 SE7       30.05S
LANCASTER      CLOUDY    71  69  91 S3        30.06S
$$

TXZ091>094-102>105-117-120-121-131>134-281100-
NORTH CENTRAL TEXAS

CITY           SKY/WX    TMP DP  RH WIND       PRES   REMARKS
SHRMAN/DENISON CLOUDY    74  72  94 S9        30.04F
GAINESVILLE    CLOUDY    72  70  94 SE6       30.05F
BOWIE          CLOUDY    71  71 100 S10       30.02F
BRIDGEPORT     MOCLDY    71  71 100 S7        30.05R
DECATUR        CLOUDY    72  70  95 S12       30.04S
DENTON         CLOUDY    74  72  93 S10       30.04R
MCKINNEY       CLOUDY    73  71  93 S6        30.04F
GREENVILLE     MOCLDY    72  70  94 SE3       30.06S
ROCKWALL       CLOUDY   N/A N/A N/A S5        30.04S
TERRELL        CLOUDY    72  71  97 SE7       30.06R
WAXAHACHIE     FOG       71  71 100 S6        30.06S VSB 1/2
CLEBURNE       MOCLDY    73  73 100 MISG      30.06F
GRANBURY         N/A     74  72  93 SE7       30.04S
$$

TXZ083>090-098>101-113>116-127>130-139>142-154-155-281100-
WESTERN NORTH TEXAS

CITY           SKY/WX    TMP DP  RH WIND       PRES   REMARKS
WICHITA FALLS  TSTM      63  62  97 N13       30.04F FOG
WF-KICKAPOO    CLOUDY    65  62  88 N16G23    30.06R
VERNON         CLOUDY    65  57  76 N8        30.02F
ABILENE        MOCLDY    72  69  90 S16       30.00F
ABILENE-DYESS  MOCLDY    71  67  84 S13       29.98F
BRECKENRIDGE   MOCLDY    74  72  92 SE8       29.99S
GRAHAM         MOCLDY    71  71  99 SE6       30.00S
MINERAL WELLS  PTCLDY    72  70  93 SE9       30.02R
STEPHENVILLE   CLOUDY    72  69  90 SE6       30.06S
COMANCHE       CLOUDY    72  72 100 S7        30.04R
BROWNWOOD      CLOUDY    72  70  94 SE9       30.03R
COLEMAN        CLOUDY    71  71  99 S8        30.03S
BRADY          CLEAR     72  70  94 S9        30.03R
$$

TXZ143>147-156>162-174-175-281100-
CENTRAL TEXAS

CITY           SKY/WX    TMP DP  RH WIND       PRES   REMARKS
WACO           CLOUDY    73  70  90 S7        30.06R
WACO-MCGREGOR    N/A    N/A N/A N/A MISG        N/A
HILLSBORO      CLOUDY    73  70  91 SE6       30.07S
CORSICANA      MOCLDY    73  70  90 S6        30.07R
MEXIA          CLOUDY    70  69  98 SE3       30.06S
HEARNE         CLOUDY    72  71  95 SE5       30.07R
CAMERON        CLOUDY    73  71  93 S3        30.06R
TEMPLE         CLOUDY    72  66  83 SE5       30.05R
KILLEEN        CLOUDY    72  70  93 S7        30.04S
KILLEEN-SKYLRK CLOUDY    73  66  78 S5        30.05S
FORT HOOD      MOCLDY    72  70  94 S6        30.04S
GATESVILLE     CLOUDY    73  70  88 S6        30.07R
HAMILTON       CLOUDY    72  72 100 S13       30.05S
LAMPASAS       PTCLDY    72  70  93 SE3       30.04S
$$

TXZ095>097-106>112-122>126-135>138-148>153-164>167-281100-
EAST TEXAS

CITY           SKY/WX    TMP DP  RH WIND       PRES   REMARKS
PARIS          CLOUDY    72  66  83 SE7       30.06S
SULPHUR SPRNGS MOCLDY    73  72  94 S5        30.09R
MOUNT PLEASANT MOCLDY    72  71  98 CALM      30.08S
GILMER         MOCLDY    73  71  94 CALM      30.07R
TYLER          MOCLDY    73  69  87 S5        30.07R
LONGVIEW       PTCLDY    73  71  93 SE7       30.07R
MARSHALL       PTCLDY    73  71  92 CALM      30.09S
ATHENS         PTCLDY    70  70 100 CALM      30.06R
PALESTINE      MOCLDY    70  69  97 CALM      30.08R
JACKSONVILLE   CLEAR     72  68  89 S3        30.10R
NACOGDOCHES    PTCLDY    70  70 100 CALM      30.07R
LUFKIN         MOCLDY    72  69  90 CALM      30.07R
$$

SUPPLEMENTAL OBSERVATIONS (CENTRAL)

CITY           SKY/WX    TMP DP  RH WIND       PRES   REMARKS
LAKE TEXOMA      N/A     72  68  88 E3          N/A
CADDO GRASSLND   N/A     72  68  88 S3          N/A
PAT MAYSE LAKE   N/A     72  70  94 SE9         N/A
ATHENS           N/A     73  70  88 S5          N/A
LAKE LIMESTONE   N/A     72  66  83 SE2         N/A
MCGREGOR         N/A     73  70  88 SE3         N/A
TEMPLE           N/A     73  70  88 S6          N/A
$$

SUPPLEMENTAL OBSERVATIONS (WEST)

CITY           SKY/WX    TMP DP  RH WIND       PRES   REMARKS
MILLERS CREEK    N/A     64  61  88 NE10G26     N/A
POSSUM KINGDOM   N/A     72  68  88 SE7         N/A
LBJ GRASSLAND    N/A     73  70  88 SE12        N/A
GRANBURY         N/A     73  70  88 SE9         N/A
COMANCHE         N/A     72  68  88 S8          N/A
HAMBY            N/A     72  66  83 S9          N/A
IVIE RESERVOIR   N/A     72  68  88 SE9         N/A
COLORADO BEND    N/A     72  68  88 SW8         N/A
$$

SUPPLEMENTAL OBSERVATIONS (EAST)

CITY           SKY/WX    TMP DP  RH WIND       PRES   REMARKS
CLARKSVILLE      N/A     72  70  94 SE5         N/A
TEXARKANA        N/A     68  66  94 CALM        N/A
LINDEN           N/A     72  68  88 E2          N/A
CADDO LAKE       N/A     70  68  94 CALM        N/A
GILMER           N/A     72  68  88 CALM        N/A
HENDERSON        N/A     70  66  88 SE1         N/A
N SABINE NF      N/A     68  66  94 MISG        N/A
S SABINE NF      N/A     68  66  94 CALM        N/A
$$

SUPPLEMENTAL OBSERVATIONS ARE A COLLECTION OF AUTOMATED INSTRUMENTS
THAT ARE MAINTAINED BY A VARIETY OF FEDERAL AND STATE AGENCIES.
CERTAIN ELEMENTS...SUCH AS HUMIDITY VALUES AND SUSTAINED WIND
SPEEDS...MAY BE APPROXIMATED.



USA.gov is the U.S. government's official web portal to all federal, state and local government web resources and services.